GAOFEN 9 DEB, 44600

Orbit data source: Space-Track

GAOFEN 9 DEB, 44600 is space debris in SSO originally from a launch on Mon, 14 Sep 2015 UTC launched from the Jiuquan Satellite Launch Center, China (JSC). Debris objects in space refer to the collection of defunct objects orbiting the Earth. Examples of debris include non-operational satellites, rocket bodies, and fragments generated from explosions, collisions, or faulty payload assembly.

Loading next visibility...
Identifier
44600, 2015-047B
Orbit
SSO
Last TLE update
11 hours ago
Origin
Manufacturer
Unknown
Mission
Spacecraft
Bus & Motor
Unknown
Mass
Unknown
Launch date (UTC)
2015-09-14 (10 years ago)
Launch vehicle
Unknown
Launch site
Jiuquan Satellite Launch Center, China (JSC)
Object type
Payload
Rocket body
Debris
Shape & HBR
Unknown
Radar Cross Section
Small (<0.1 m²)

Expand to show TLE details & history

TLE from 11 hours ago
0 GAOFEN 9 DEB
1 44600U 15047B   25181.61007163  .00002654  00000-0  50444-3 0  9999
2 44600  98.1236 111.6841 0162277  86.5439 275.4306 14.56827241514587
Epoch: 2025-06-30T14:38Z
TLE epoch observation values (Epoch: 2025-06-30T14:38:30.188Z)
Latitude
0.00002°
Longitude
-26.8591°
Altitude
697.396 km
Speed
7.512 km/s
True Right ascension
07h 26m 44s
True Declination
0° 00' 00"
Sunlit
Object was in daylight at epoch
Visualization orbit readout
Latitude
-22.92287°
Longitude
-22.95233°
Altitude
745.879 km
Speed
7.463 km/s
Apparent Right ascension
05h 15m 08s
Apparent Declination
-39° 52' 21"
Sunlit
Object is in daylight
Visualization observer readout
Local Sidereal Time
13:41:32
Azimuth
252.178° W
Elevation
-49.67°
Doppler factor
1
Orbital elements
Apogee altitude
815.388 km
Perigee altitude
585.648 km
Semi-major axis
7,078.655 km
Eccentricity
0.01623
Inclination
98.1236°
RAAN
111.6841°
Arg. of periapsis
86.5439°
True anomaly
Unknown
Mean anomaly
275.4306°
Eccentric anomaly
Unknown
Mean motion
3.64432 °/min
Orbital period
98.78 mins
BSTAR
0.00050444
Loading maneuver chart data...
Loading SW <> Apogee altitude chart data...
Loading historical data...
Loading historical data...
Loading historical data...
Loading historical data...
Loading historical data...
Loading historical data...
Loading historical data...
Other satellites on launch #47 in the year 2015 (2015-09-14 UTC)

GAOFEN 9 DEB Visibility forecast

Observer location: undefined°, undefined°

Span
Click to sort rows by Start time (UTC) header in descending order
Start Az.
Max El. time (UTC)
Max El. Az.
Max El.
End time (UTC)
End Az.
7 mins2025-07-01 07:41:28.406Z31.368° NE2025-07-01 07:45:28.406Z105.396° ESE31.128°2025-07-01 07:48:28.406Z160.97° S
4 mins2025-07-01 09:21:28.406Z316.683° NNW2025-07-01 09:22:28.406Z299.502° NW17.608°2025-07-01 09:25:28.406Z253.04° W
6 mins2025-07-01 18:48:28.406Z130.6° SE2025-07-01 18:51:28.406Z62.681° ENE31.152°2025-07-01 18:54:28.406Z7.918° NNE
4 mins2025-07-01 20:27:28.406Z239.175° WSW2025-07-01 20:29:28.406Z272.023° WNW16.066°2025-07-01 20:31:28.406Z302.253° NW
|